Weather reports worldwide

Advertisment
Montauban, France (7540): temperature & dewpoint: 18.06.2018 11:00:00 - 24.06.2018 11:00:00 (CEST)Montauban, France (7540): temperature 5cm: 18.06.2018 11:00:00 - 24.06.2018 11:00:00 (CEST)Montauban, France (7540): temperature -20cm & temperature -100cm: 18.06.2018 11:00:00 - 24.06.2018 11:00:00 (CEST)Montauban, France (7540): wind speed & gusts: 18.06.2018 11:00:00 - 24.06.2018 11:00:00 (CEST)Montauban, France (7540): wind direction: 18.06.2018 11:00:00 - 24.06.2018 11:00:00 (CEST)Montauban, France (7540): reduced air pressure: 18.06.2018 11:00:00 - 24.06.2018 11:00:00 (CEST)Montauban, France (7540): visibility: 18.06.2018 11:00:00 - 24.06.2018 11:00:00 (CEST)Montauban, France (7540): sunshine duration: 18.06.2018 11:00:00 - 24.06.2018 11:00:00 (CEST)Montauban, France (7540): precipitation: 18.06.2018 11:00:00 - 24.06.2018 11:00:00 (CEST)
Date & Time tt [°C] td [°C] tt 5cm [°C] tt -20cm [°C] tt -100cm [°C] ff [km/h] ff [kn] fx [km/h] fx [kn] dd ppp [hPa] vv [km] sd [min] rr [mm]
24.06.2018 11:00:00 22,8 11,5 23,6 22,1 19,4 3 2 7 4 W 1018,5 20 41 0,0
24.06.2018 10:00:00 20,2 11,4 23,0 22,3 19,4 3 2 8 5 E 1018,8 20 27 0,0
24.06.2018 09:00:00 19,6 11,6 17,7 22,4 19,4 3 2 13 7 E 1018,7 20 42 0,0
24.06.2018 08:00:00 17,1 10,7 13,7 22,5 19,4 8 4 12 7 ENE 1018,5 20 58 0,0
24.06.2018 07:00:00 14,0 11,3 9,7 22,6 19,4 0 0 4 2 N 1018,6 20 23 0,0
24.06.2018 06:00:00 13,0 10,9 9,2 22,8 19,4 0 0 4 2 N 1018,3 13 0 0,0
24.06.2018 05:00:00 13,3 11,0 9,7 22,9 19,4 3 1 6 3 ESE 1018,0 20 0 0,0
24.06.2018 04:00:00 14,7 11,5 11,6 23,1 19,4 4 2 12 6 ESE 1018,2 20 0 0,0
24.06.2018 03:00:00 15,9 12,1 12,4 23,2 19,4 5 3 13 7 ESE 1018,3 20 0 0,0
24.06.2018 02:00:00 17,5 12,0 13,1 23,3 19,3 4 2 9 5 ENE 1018,5 20 0 0,0
24.06.2018 01:00:00 19,5 11,5 14,8 23,4 19,3 6 3 9 5 NW 1018,7 20 0 0,0
24.06.2018 00:00:00 21,4 10,5 15,5 23,4 19,3 5 3 11 6 WNW 1018,8 20 0 0,0
23.06.2018 23:00:00 21,9 10,7 14,7 23,4 19,3 5 3 9 5 WSW 1018,8 20 0 0,0
23.06.2018 22:00:00 23,5 10,2 18,7 23,4 19,3 6 3 14 8 WNW 1018,3 3,9 1 0,0
23.06.2018 21:00:00 26,8 7,8 24,9 23,3 19,3 9 5 17 9 NW 1017,8 20 60 0,0
23.06.2018 20:00:00 28,1 5,0 30,0 23,2 19,3 7 4 19 10 NNW 1017,9 20 60 0,0
23.06.2018 19:00:00 28,2 6,3 32,7 23,0 19,3 7 4 19 10 NNE 1018,0 20 60 0,0
23.06.2018 18:00:00 28,2 7,4 32,6 22,8 19,3 7 4 23 12 NW 1018,4 20 60 0,0
23.06.2018 17:00:00 27,5 6,3 33,1 22,6 19,3 9 5 21 11 N 1018,9 20 60 0,0
23.06.2018 16:00:00 26,7 7,7 32,7 22,4 19,3 6 4 23 12 N 1019,4 20 60 0,0
23.06.2018 15:00:00 26,1 7,2 31,9 22,2 19,3 7 4 22 12 NNE 1019,9 20 60 0,0
23.06.2018 14:00:00 24,9 8,0 30,4 22,1 19,3 8 5 24 13 N 1020,5 20 60 0,0
23.06.2018 13:00:00 24,2 8,6 29,9 22,0 19,3 12 6 23 12 NW 1021,0 20 60 0,0
23.06.2018 12:00:00 23,0 7,5 29,3 22,0 19,2 8 4 16 9 N 1021,3 20 60 0,0
23.06.2018 11:00:00 21,0 8,3 26,4 22,1 19,2 5 3 14 8 NNW 1021,5 20 60 0,0
23.06.2018 10:00:00 20,1 8,1 23,3 22,2 19,2 4 2 13 7 ENE 1021,7 20 60 0,0
23.06.2018 09:00:00 17,4 8,8 19,4 22,4 19,2 8 5 16 9 NE 1021,7 20 60 0,0
23.06.2018 08:00:00 15,6 8,8 13,0 22,5 19,2 7 4 11 6 E 1021,5 20 60 0,0
23.06.2018 07:00:00 13,0 8,9 7,1 22,7 19,2 5 3 6 4 E 1021,3 20 23 0,0
23.06.2018 06:00:00 12,3 8,6 7,0 22,9 19,2 3 2 5 3 E 1021,2 20 0 0,0
23.06.2018 05:00:00 12,0 8,1 8,5 23,0 19,2 3 2 11 6 ESE 1021,1 20 0 0,0
23.06.2018 04:00:00 12,7 8,2 9,3 23,2 19,2 0 0 9 5 N 1021,3 20 0 0,0
23.06.2018 03:00:00 17,0 7,3 10,4 23,3 19,2 5 3 10 5 NNE 1021,1 20 0 0,0
23.06.2018 02:00:00 17,7 6,8 13,5 23,4 19,2 3 2 16 9 NE 1021,3 20 0 0,0
23.06.2018 01:00:00 18,7 6,2 16,2 23,5 19,1 7 4 15 8 NE 1021,2 20 0 0,0
23.06.2018 00:00:00 20,2 5,8 17,4 23,6 19,1 6 4 16 9 NE 1021,2 20 0 0,0
22.06.2018 23:00:00 21,2 5,5 18,3 23,6 19,1 5 3 18 10 NE 1020,9 20 0 0,0
22.06.2018 22:00:00 23,1 5,5 20,6 23,6 19,1 10 5 19 11 NNE 1019,9 20 15 0,0
22.06.2018 21:00:00 25,8 5,9 24,6 23,6 19,1 10 6 22 12 N 1019,4 20 60 0,0
22.06.2018 20:00:00 27,4 7,3 29,2 23,5 19,1 13 7 24 13 NNW 1019,1 20 60 0,0
22.06.2018 19:00:00 28,0 6,7 31,0 23,3 19,1 13 7 26 14 NNW 1019,0 20 60 0,0
22.06.2018 18:00:00 27,7 7,0 32,4 23,2 19,1 16 8 30 16 NNW 1019,2 20 60 0,0
22.06.2018 17:00:00 27,5 9,3 32,6 23,0 19,1 10 6 26 14 N 1019,2 20 60 0,0
22.06.2018 16:00:00 27,1 9,9 32,3 22,8 19,1 11 6 26 14 N 1019,6 20 60 0,0
22.06.2018 15:00:00 26,2 11,9 31,4 22,6 19,0 11 6 29 16 NNW 1019,9 20 60 0,0
22.06.2018 14:00:00 25,7 12,9 30,7 22,5 19,1 14 7 26 14 N 1020,2 20 60 0,0
22.06.2018 13:00:00 25,4 15,1 29,6 22,5 19,1 12 7 26 14 NNW 1020,3 20 60 0,0
22.06.2018 12:00:00 23,8 15,0 27,6 22,5 19,0 15 8 27 14 NNW 1020,5 20 60 0,0
22.06.2018 11:00:00 22,6 15,2 26,9 22,5 19,0 13 7 24 13 NNW 1020,4 20 60 0,0
22.06.2018 10:00:00 21,7 16,2 21,2 22,6 19,0 11 6 22 12 NW 1020,4 20 55 0,0
22.06.2018 09:00:00 20,4 16,2 22,5 22,7 19,0 11 6 19 11 NNW 1020,3 20 60 0,0
22.06.2018 08:00:00 19,5 17,5 18,4 22,8 19,0 13 7 19 10 NW 1019,9 18 60 0,2
22.06.2018 07:00:00 18,5 17,5 17,7 22,9 19,0 11 6 19 10 NW 1020,0 10 5 0,0
22.06.2018 06:00:00 18,6 17,6 17,8 23,0 19,0 11 6 16 9 WNW 1019,6 9 0 0,0
22.06.2018 05:00:00 19,1 17,9 18,3 23,1 19,0 10 5 24 13 WNW 1019,4 11 0 0,0
22.06.2018 04:00:00 19,8 18,3 19,0 23,1 19,0 13 7 25 14 WNW 1019,2 14 0 0,0
22.06.2018 03:00:00 20,5 18,6 19,8 23,1 18,9 13 7 22 12 WNW 1019,2 17 0 0,0
22.06.2018 02:00:00 21,2 19,1 20,4 23,2 18,9 15 8 25 14 W 1019,3 18 0 0,0
22.06.2018 01:00:00 22,0 19,5 21,2 23,2 18,9 15 8 32 17 WNW 1019,1 18 0 0,0
22.06.2018 00:00:00 23,5 19,8 22,6 23,3 18,9 17 9 29 16 WNW 1019,0 20 0 0,0
21.06.2018 23:00:00 25,0 19,1 23,3 23,3 18,9 11 6 18 10 WNW 1018,6 20 0 0,0
21.06.2018 22:00:00 26,2 19,3 23,9 23,2 18,9 9 5 16 9 WNW 1017,7 20 15 0,0
21.06.2018 21:00:00 28,1 19,1 27,1 23,1 18,9 12 7 22 12 NW 1017,4 20 52 0,0
21.06.2018 20:00:00 29,2 18,3 28,4 23,0 18,9 14 8 29 15 NW 1017,2 20 44 0,0
21.06.2018 19:00:00 30,2 19,6 31,7 22,9 18,9 17 9 31 17 NW 1017,1 20 60 0,0
21.06.2018 18:00:00 30,0 19,4 33,2 22,7 18,9 16 8 27 15 NW 1017,3 20 60 0,0
21.06.2018 17:00:00 29,3 20,5 33,7 22,5 18,8 14 8 23 12 NW 1017,9 20 60 0,0
21.06.2018 16:00:00 28,3 20,3 32,8 22,4 18,9 13 7 26 14 WNW 1018,1 20 60 0,0
21.06.2018 15:00:00 26,7 20,3 30,8 22,3 18,8 10 5 21 12 NW 1018,7 19 57 0,0
21.06.2018 14:00:00 25,8 20,1 29,9 22,3 18,8 9 5 19 11 W 1019,1 18 38 0,0
21.06.2018 13:00:00 23,8 19,7 25,4 22,3 18,8 10 5 19 10 W 1019,3 14 1 0,0
21.06.2018 12:00:00 22,4 19,4 23,0 22,3 18,8 10 6 17 9 W 1019,8 12 0 0,0
21.06.2018 11:00:00 21,5 19,1 21,9 22,4 18,8 11 6 18 10 WNW 1019,6 10 0 0,0
21.06.2018 10:00:00 21,0 19,1 20,9 22,5 18,8 12 7 22 12 WNW 1019,7 8 0 0,0
21.06.2018 09:00:00 20,7 19,0 20,7 22,6 18,8 13 7 20 11 WNW 1019,6 8 0 0,0
21.06.2018 08:00:00 20,1 18,2 19,1 22,7 18,8 13 7 18 10 W 1019,2 15 37 0,0
21.06.2018 07:00:00 18,8 16,4 16,0 22,8 18,8 0 0 8 4 N 1018,5 20 9 0,0
21.06.2018 06:00:00 18,4 16,0 15,6 22,9 18,8 3 2 6 3 S 1018,1 20 0 0,0
21.06.2018 05:00:00 18,6 16,0 16,2 23,0 18,8 0 0 5 3 N 1018,0 20 0 0,0
21.06.2018 04:00:00 19,6 16,4 16,5 23,1 18,8 0 0 6 4 N 1017,9 20 0 0,0
21.06.2018 03:00:00 20,7 16,7 17,0 23,1 18,8 4 2 6 4 S 1018,2 20 0 0,0
21.06.2018 02:00:00 22,7 16,7 18,3 23,2 18,7 4 2 11 6 SSE 1018,0 20 0 0,0
21.06.2018 01:00:00 25,3 16,2 19,8 23,2 18,8 2 1 11 6 ENE 1017,9 20 0 0,0
21.06.2018 00:00:00 25,4 17,3 21,0 23,2 18,7 7 4 16 9 S 1017,8 20 0 0,0
20.06.2018 23:00:00 23,9 18,8 20,2 23,2 18,7 4 2 17 9 SE 1017,7 20 0 0,0
20.06.2018 22:00:00 28,9 18,1 24,5 23,1 18,7 4 2 10 5 N 1016,7 20 15 0,0
20.06.2018 21:00:00 30,9 16,5 29,7 23,0 18,7 6 4 11 6 NNW 1016,3 20 60 0,0
20.06.2018 20:00:00 32,1 15,6 34,7 22,7 18,7 4 2 8 4 NNW 1016,2 20 60 0,0
20.06.2018 19:00:00 32,0 15,1 32,1 22,5 18,7 2 1 12 7 S 1016,2 18 41 0,0
20.06.2018 18:00:00 31,4 16,2 31,7 22,3 18,7 4 2 16 8 ENE 1016,5 20 52 0,0
20.06.2018 17:00:00 31,6 16,0 35,5 22,0 18,7 4 2 19 10 SSE 1016,7 18 56 0,0
20.06.2018 16:00:00 31,0 15,8 36,8 21,7 18,7 6 3 23 12 SSW 1017,1 20 57 0,0
20.06.2018 15:00:00 30,7 16,7 37,1 21,5 18,7 4 2 16 9 SW 1017,5 20 60 0,0
20.06.2018 14:00:00 30,1 15,8 35,5 21,3 18,7 8 4 23 12 S 1017,9 20 60 0,0
20.06.2018 13:00:00 29,3 15,4 35,5 21,2 18,7 6 3 15 8 ESE 1018,3 20 60 0,0
20.06.2018 12:00:00 28,5 18,9 34,0 21,2 18,7 5 3 15 8 ESE 1018,4 20 60 0,0
20.06.2018 11:00:00 27,1 18,4 32,3 21,2 18,7 3 2 8 5 E 1018,7 20 60 0,0
20.06.2018 10:00:00 24,6 18,8 29,8 21,2 18,7 0 0 7 4 N 1019,1 20 60 0,0
20.06.2018 09:00:00 22,1 17,0 25,4 21,3 18,7 3 1 5 3 N 1019,3 20 60 0,0
20.06.2018 08:00:00 19,0 16,8 17,2 21,4 18,7 0 0 8 5 N 1019,5 20 60 0,0
20.06.2018 07:00:00 17,3 15,8 13,1 21,5 18,7 4 2 8 5 E 1019,3 20 24 0,0
20.06.2018 06:00:00 15,8 14,7 13,2 21,6 18,7 0 0 6 3 N 1019,1 7 0 0,0
20.06.2018 05:00:00 17,0 15,5 13,3 21,7 18,7 0 0 3 2 N 1019,1 20 0 0,0
20.06.2018 04:00:00 17,1 15,1 14,2 21,8 18,7 0 0 3 2 N 1019,1 20 0 0,0
20.06.2018 03:00:00 17,5 15,5 15,0 21,8 18,7 0 0 4 2 N 1019,4 20 0 0,0
20.06.2018 02:00:00 19,0 16,2 15,4 21,9 18,7 2 1 5 3 S 1019,6 20 0 0,0
20.06.2018 01:00:00 19,8 16,2 16,0 21,9 18,7 2 1 3 2 S 1019,7 20 0 0,0
20.06.2018 00:00:00 21,2 16,8 17,0 21,9 18,7 0 0 8 4 N 1019,8 20 0 0,0
19.06.2018 23:00:00 23,3 16,3 17,9 21,9 18,7 4 2 10 5 W 1019,7 20 0 0,0
19.06.2018 22:00:00 25,2 16,1 20,2 21,8 18,7 4 2 11 6 WSW 1019,3 2,7 15 0,0
19.06.2018 21:00:00 28,1 14,7 27,3 21,6 18,7 5 3 11 6 NW 1019,1 20 60 0,0
19.06.2018 20:00:00 28,8 14,2 31,1 21,4 18,7 7 4 14 8 NNW 1019,3 20 60 0,0
19.06.2018 19:00:00 28,6 14,1 31,1 21,2 18,7 3 2 16 9 ENE 1019,7 20 50 0,0
19.06.2018 18:00:00 28,5 14,3 29,2 20,9 18,7 6 3 16 9 SSW 1020,0 20 52 0,0
19.06.2018 17:00:00 28,6 14,4 32,1 20,7 18,7 9 5 21 11 E 1020,6 20 55 0,0
19.06.2018 16:00:00 28,0 16,0 29,2 20,5 18,7 4 2 22 12 N 1020,8 20 49 0,0
19.06.2018 15:00:00 27,0 14,4 31,2 20,3 18,7 8 4 19 11 N 1021,5 20 55 0,0
19.06.2018 14:00:00 26,0 15,1 26,7 20,1 18,7 5 3 18 10 SE 1022,1 20 44 0,0
19.06.2018 13:00:00 24,8 13,4 27,4 20,0 18,7 10 5 19 10 NNW 1022,6 20 51 0,0
19.06.2018 12:00:00 24,3 14,1 25,1 19,9 18,7 6 3 14 7 NNE 1023,1 20 41 0,0
19.06.2018 11:00:00 23,3 15,4 28,3 19,9 18,7 4 2 13 7 N 1023,4 20 58 0,0
19.06.2018 10:00:00 21,3 16,3 26,7 20,0 18,7 5 3 13 7 NNE 1024,2 20 60 0,0
19.06.2018 09:00:00 19,3 15,8 23,2 20,0 18,7 3 1 8 4 NNE 1024,8 20 60 0,0
19.06.2018 08:00:00 17,7 16,4 15,4 20,1 18,7 0 0 5 3 N 1025,0 20 60 0,0
19.06.2018 07:00:00 15,0 14,2 10,8 20,2 18,7 0 0 2 1 N 1024,9 19 24 0,0
19.06.2018 06:00:00 14,3 13,5 10,8 20,3 18,7 2 1 6 3 W 1025,0 6 0 0,0
19.06.2018 05:00:00 15,1 14,3 11,7 20,4 18,7 0 0 6 4 N 1024,9 18 0 0,0
19.06.2018 04:00:00 15,8 14,8 12,4 20,5 18,7 2 1 9 5 WNW 1024,9 17 0 0,0
19.06.2018 03:00:00 16,7 15,4 12,6 20,5 18,7 5 3 11 6 NW 1024,9 20 0 0,0
19.06.2018 02:00:00 15,5 14,2 12,7 20,6 18,7 3 2 6 3 WSW 1025,2 20 0 0,0
19.06.2018 01:00:00 16,1 14,6 13,2 20,6 18,7 3 2 5 3 W 1025,2 20 0 0,0
19.06.2018 00:00:00 18,5 15,6 14,9 20,6 18,7 0 0 11 6 N 1025,3 20 0 0,0
18.06.2018 23:00:00 19,1 15,8 17,1 20,6 18,7 8 4 13 7 WNW 1024,9 20 0 0,0
18.06.2018 22:00:00 20,1 15,5 17,7 20,6 18,7 6 3 13 7 NW 1024,7 20 8 0,0
18.06.2018 21:00:00 21,4 15,5 20,5 20,5 18,7 8 5 20 11 NW 1024,5 20 6 0,0
18.06.2018 20:00:00 22,7 15,0 24,3 20,4 18,7 13 7 24 13 NW 1024,4 20 58 0,0
18.06.2018 19:00:00 22,6 14,7 22,9 20,3 18,7 10 5 20 11 NNW 1024,5 20 29 0,0
18.06.2018 18:00:00 21,8 14,7 22,9 20,2 18,7 8 4 20 11 NNW 1024,8 20 4 0,0
18.06.2018 17:00:00 22,5 15,6 24,2 20,1 18,7 13 7 23 12 WNW 1025,2 20 21 0,0
18.06.2018 16:00:00 21,4 14,5 23,8 20,0 18,7 12 6 22 12 NW 1025,4 20 11 0,0
18.06.2018 15:00:00 20,6 14,5 23,6 20,0 18,7 10 5 22 12 WNW 1025,8 20 12 0,0
18.06.2018 14:00:00 19,6 14,8 19,7 20,0 18,7 8 4 16 9 WNW 1026,1 20 1 0,0
18.06.2018 13:00:00 18,0 14,5 17,8 20,0 18,7 7 4 18 10 WNW 1026,6 20 0 0,0
18.06.2018 12:00:00 16,8 13,9 16,4 20,0 18,7 11 6 18 10 WNW 1026,8 20 0 0,0
18.06.2018 11:00:00 16,3 13,8 16,8 20,1 18,7 11 6 19 10 WNW 1026,9 10 0 0,0

tt = temperature
td = dewpoint
tt 5cm = temperature 5cm
tt -20cm = temperature -20cm
tt -100cm = temperature -100cm
ff = wind speed
fx = gusts
dd = wind direction
ppp = reduced air pressure
vv = visibility
sd = sunshine duration
rr = precipitation

Next stations